Weather History for Seward, AK

Change the Weather History Date:

Wednesday, January 2, 2013

  Actual Average Record
Temperature  
Mean Temperature 36 °F -  
Max Temperature 39 °F 29 °F 43 °F (1984)
Min Temperature 33 °F 19 °F 1 °F (1969)
Degree Days  
Heating Degree Days 29    
Moisture  
Dew Point 34 °F    
Average Humidity 89    
Maximum Humidity 100    
Minimum Humidity 76    
Precipitation  
Precipitation 0.65 in - - ()
Sea Level Pressure  
Sea Level Pressure 29.49 in    
Wind  
Wind Speed 9 mph (South)    
Max Wind Speed 18 mph    
Max Gust Speed 36 mph    
Visibility 8 miles    
Events Rain , Snow    
Averages and records for this station are not official NWS values.
T = Trace of Precipitation, MM = Missing Value Source: NWS Daily Summary

Daily Weather History Graph

Daily Weather History Graph

Search for Another Location

Airport:

Trip Planner

Search our weather history database for the weather conditions in past years. The results will help you decide how hot, cold, wet, or windy it might be!

Date:

Astronomy

Jan. 02, 2013 Rise Set
Actual Time 10:00 AM AKST 4:04 PM AKST
Civil Twilight 9:03 AM AKST 5:00 PM AKST
Nautical Twilight 8:07 AM AKST 5:57 PM AKST
Astronomical Twilight 7:15 AM AKST 6:48 PM AKST
Moon 11:29 PM AKST (1/2) 11:12 AM AKST (1/2)
Length of Visible Light 7h 57m
Length of Day
6h 03m
Waning Gibbous, 74% of the Moon is Illuminated
Jan 2
Waning Gibbous
Jan 4
Last Quarter
Jan 11
New
Jan 18
First Quarter
Jan 26
Full

Hourly Weather History & Observations

Time (AKST) Temp. Windchill Dew Point Humidity Pressure Visibility Wind Dir Wind Speed Gust Speed Precip Events Conditions
12:15 AM 35.6 °F 29.2 °F 33.8 °F 93% 29.35 in 2.5 mi South 8.1 mph 24.2 mph 0.04 in Snow Light Snow
12:25 AM 35.6 °F 27.1 °F 33.8 °F 93% 29.35 in 4.0 mi South 12.7 mph 17.3 mph 0.05 in Snow Light Snow
12:44 AM 35.6 °F 28.0 °F 33.8 °F 93% 29.36 in 5.0 mi South 10.4 mph 20.7 mph 0.08 in Snow Light Snow
12:53 AM 36.0 °F 26.7 °F 34.0 °F 93% 29.37 in 6.0 mi South 15.0 mph 27.6 mph 0.09 in Rain Light Rain
1:22 AM 35.6 °F 28.0 °F 35.6 °F 100% 29.38 in 9.0 mi SSW 10.4 mph - 0.02 in   Overcast
1:31 AM 35.6 °F 28.6 °F 35.6 °F 100% 29.38 in 7.0 mi SSW 9.2 mph - 0.03 in Rain Light Rain
1:53 AM 37.0 °F 28.5 °F 37.0 °F 100% 29.39 in 5.0 mi SSW 13.8 mph 18.4 mph 0.04 in Rain Light Rain
2:06 AM 37.4 °F 30.3 °F 35.6 °F 93% 29.39 in 7.0 mi SSW 10.4 mph 19.6 mph 0.02 in Rain Light Rain
3:08 AM 37.4 °F 29.3 °F 33.8 °F 87% 29.40 in 9.0 mi South 12.7 mph 18.4 mph 0.00 in Rain Light Rain
3:53 AM 36.0 °F 26.0 °F 34.0 °F 93% 29.41 in 6.0 mi South 17.3 mph 26.5 mph 0.05 in Rain Light Rain
4:45 AM 37.4 °F 30.3 °F 33.8 °F 87% 29.42 in 7.0 mi South 10.4 mph 18.4 mph 0.03 in Snow Light Snow
4:53 AM 37.0 °F 27.4 °F 34.0 °F 89% 29.42 in 10.0 mi South 17.3 mph 21.9 mph 0.03 in Rain Light Rain
5:10 AM 37.4 °F 30.3 °F 33.8 °F 87% 29.43 in 10.0 mi SSW 10.4 mph - 0.00 in   Overcast
5:18 AM 37.4 °F 29.8 °F 33.8 °F 87% 29.43 in 10.0 mi SSW 11.5 mph - 0.00 in   Overcast
5:27 AM 37.4 °F 31.4 °F 33.8 °F 87% 29.43 in 9.0 mi South 8.1 mph 16.1 mph 0.01 in Rain Light Rain
5:31 AM 37.4 °F 30.3 °F 33.8 °F 87% 29.43 in 10.0 mi SSW 10.4 mph - 0.01 in Rain Light Rain
5:43 AM 37.4 °F 31.4 °F 33.8 °F 87% 29.44 in 10.0 mi SW 8.1 mph - 0.01 in Rain Light Rain
5:53 AM 37.0 °F 34.5 °F 34.0 °F 89% 29.44 in 10.0 mi Variable 3.5 mph - 0.01 in Rain Light Rain
6:00 AM 37.4 °F - 33.8 °F 87% 29.44 in 10.0 mi Calm Calm - 0.00 in   Overcast
6:08 AM 37.4 °F - 33.8 °F 87% 29.44 in 10.0 mi Calm Calm - 0.00 in   Overcast
6:53 AM 37.0 °F 29.3 °F 33.1 °F 86% 29.45 in 9.0 mi SSE 11.5 mph - 0.01 in Rain Light Rain
7:11 AM 35.6 °F 31.7 °F 33.8 °F 93% 29.45 in 9.0 mi ENE 4.6 mph - 0.01 in Rain Light Rain
7:46 AM 35.6 °F 31.7 °F 33.8 °F 93% 29.45 in 9.0 mi NE 4.6 mph - 0.02 in Rain Light Rain
7:53 AM 35.1 °F - 34.0 °F 96% 29.45 in 8.0 mi Calm Calm - 0.03 in Rain Light Rain
8:16 AM 33.8 °F - 33.8 °F 100% 29.46 in 9.0 mi Calm Calm - 0.01 in Rain Light Rain
8:53 AM 34.0 °F - 33.1 °F 96% 29.47 in 10.0 mi Calm Calm - 0.02 in Rain Light Rain
9:17 AM 33.8 °F 24.8 °F 33.8 °F 100% 29.47 in 4.0 mi SSW 12.7 mph 19.6 mph 0.03 in Snow Light Snow
9:28 AM 35.6 °F 31.7 °F 33.8 °F 93% 29.47 in 7.0 mi SSE 4.6 mph - 0.04 in Rain Light Rain
9:53 AM 37.9 °F 32.7 °F 34.0 °F 86% 29.48 in 10.0 mi Variable 6.9 mph - 0.05 in Rain Light Rain
10:17 AM 37.4 °F 34.9 °F 33.8 °F 87% 29.49 in 10.0 mi Variable 3.5 mph - 0.01 in   Overcast
10:32 AM 35.6 °F - 33.8 °F 93% 29.50 in 10.0 mi Calm Calm - 0.01 in   Overcast
10:53 AM 37.0 °F 30.4 °F 34.0 °F 89% 29.51 in 8.0 mi SSE 9.2 mph - 0.01 in Rain Light Rain
11:28 AM 37.4 °F 30.3 °F 33.8 °F 87% 29.50 in 10.0 mi SE 10.4 mph - 0.01 in Rain Light Rain
11:35 AM 37.4 °F 32.8 °F 33.8 °F 87% 29.51 in 9.0 mi SSE 5.8 mph - 0.02 in Rain Light Rain
11:53 AM 37.0 °F 33.3 °F 34.0 °F 89% 29.51 in 8.0 mi South 4.6 mph 16.1 mph 0.03 in Rain Light Rain
12:53 PM 37.0 °F 31.0 °F 34.0 °F 89% 29.51 in 10.0 mi SSW 8.1 mph 18.4 mph 0.01 in Rain Light Rain
1:11 PM 37.4 °F 32.8 °F 33.8 °F 87% 29.50 in 10.0 mi Variable 5.8 mph - 0.00 in Rain Light Rain
1:24 PM 37.4 °F 30.8 °F 33.8 °F 87% 29.51 in 10.0 mi South 9.2 mph - 0.00 in Rain Light Rain
1:31 PM 37.4 °F 32.1 °F 35.6 °F 93% 29.51 in 10.0 mi Variable 6.9 mph 17.3 mph 0.00 in Rain Light Rain
1:49 PM 37.4 °F 29.8 °F 33.8 °F 87% 29.51 in 6.0 mi SSE 11.5 mph 17.3 mph 0.01 in Rain Light Rain
1:53 PM 37.9 °F 30.9 °F 33.1 °F 83% 29.52 in 6.0 mi South 10.4 mph 17.3 mph 0.01 in Rain Light Rain
2:28 PM 37.4 °F 29.3 °F 33.8 °F 87% 29.52 in 10.0 mi SSW 12.7 mph - 0.02 in   Overcast
2:53 PM 39.0 °F 33.4 °F 34.0 °F 82% 29.52 in 10.0 mi SSW 8.1 mph - 0.02 in   Overcast
3:21 PM 37.4 °F 31.4 °F 33.8 °F 87% 29.52 in 5.0 mi South 8.1 mph 19.6 mph 0.01 in Rain Light Rain
3:27 PM 37.4 °F 29.8 °F 33.8 °F 87% 29.52 in 6.0 mi SSW 11.5 mph 19.6 mph 0.01 in Rain Light Rain
3:53 PM 39.0 °F 32.8 °F 33.1 °F 79% 29.52 in 10.0 mi South 9.2 mph - 0.01 in Rain Light Rain
4:18 PM 37.4 °F 29.3 °F 33.8 °F 87% 29.52 in 10.0 mi South 12.7 mph 23.0 mph 0.01 in Rain Light Rain
4:35 PM 39.2 °F 30.2 °F 33.8 °F 81% 29.52 in 10.0 mi SSW 17.3 mph 23.0 mph 0.01 in   Overcast
4:53 PM 37.9 °F 30.9 °F 33.1 °F 83% 29.53 in 10.0 mi South 10.4 mph 18.4 mph 0.01 in Rain Light Rain
5:09 PM 35.6 °F 29.9 °F 33.8 °F 93% 29.53 in 10.0 mi Variable 6.9 mph - 0.00 in Rain Light Rain
5:46 PM 37.4 °F 27.8 °F 33.8 °F 87% 29.53 in 10.0 mi SSW 17.3 mph - 0.03 in Rain Light Rain
5:53 PM 37.9 °F 28.9 °F 33.1 °F 83% 29.54 in 10.0 mi South 16.1 mph 23.0 mph 0.03 in   Overcast
5:59 PM 37.4 °F 29.8 °F 33.8 °F 87% 29.54 in 7.0 mi South 11.5 mph 24.2 mph 0.01 in Rain Light Rain
6:07 PM 37.4 °F 27.5 °F 33.8 °F 87% 29.54 in 9.0 mi SSW 18.4 mph 26.5 mph 0.01 in Rain Light Rain
6:53 PM 37.9 °F 29.2 °F 33.1 °F 83% 29.55 in 10.0 mi South 15.0 mph - 0.01 in Rain Light Rain
7:38 PM 37.4 °F 28.5 °F 33.8 °F 87% 29.55 in 7.0 mi South 15.0 mph 35.7 mph 0.01 in Snow Light Snow
7:53 PM 39.0 °F 32.3 °F 32.0 °F 76% 29.55 in 10.0 mi South 10.4 mph 33.4 mph 0.01 in   Overcast
8:33 PM 37.4 °F 32.8 °F 32.0 °F 81% 29.56 in 10.0 mi Variable 5.8 mph - 0.01 in Rain Light Rain
8:53 PM 36.0 °F 30.3 °F 33.1 °F 89% 29.56 in 10.0 mi Variable 6.9 mph - 0.01 in Rain Light Rain
9:02 PM 37.4 °F 31.4 °F 33.8 °F 87% 29.56 in 9.0 mi SSE 8.1 mph - 0.01 in Rain Light Rain
9:21 PM 37.4 °F 28.5 °F 33.8 °F 87% 29.57 in 5.0 mi SSE 15.0 mph 24.2 mph 0.03 in Rain Rain
9:38 PM 35.6 °F 32.8 °F 33.8 °F 93% 29.57 in 10.0 mi Variable 3.5 mph - 0.04 in Rain Light Rain
9:44 PM 35.6 °F - 33.8 °F 93% 29.57 in 10.0 mi Calm Calm - 0.04 in Rain Light Rain
9:53 PM 35.1 °F 30.1 °F 33.1 °F 92% 29.57 in 10.0 mi NE 5.8 mph - 0.04 in Rain Light Rain
10:18 PM 35.6 °F - 33.8 °F 93% 29.57 in 7.0 mi Calm Calm - 0.01 in Rain Rain
10:53 PM 35.1 °F - 33.1 °F 92% 29.57 in 6.0 mi Calm Calm - 0.06 in Rain Light Rain
11:15 PM 35.6 °F 28.6 °F 33.8 °F 93% 29.58 in 6.0 mi South 9.2 mph - 0.03 in Rain Light Rain
11:32 PM 35.6 °F 30.7 °F 33.8 °F 93% 29.58 in 6.0 mi SE 5.8 mph - 0.04 in Rain Light Rain
11:53 PM 36.0 °F 33.3 °F 33.1 °F 89% 29.58 in 8.0 mi Variable 3.5 mph - 0.06 in Rain Light Rain